"read_dt","SO2 (ppb)","flags","PMT voltage (V)","lamp voltage (V)","lamp intensity (Hz)","internal temp (C)","react chamber temp (C)","sample flow (l/min)","pres (mmHg)","SO2 bkg (ppb)","SO2 coefficient"
2015-11-10 00:00:00,1659E-3,5C000400,-0724,0829,12270,021.9,045.3,0.266,754.7,01.17,0.508
2015-11-10 00:01:00,1652E-3,5C000400,-0724,0828,12305,021.9,045.3,0.266,754.8,01.17,0.508
2015-11-10 00:02:00,1724E-3,5C000400,-0724,0829,12193,021.9,045.3,0.266,754.6,01.17,0.508
2015-11-10 00:03:00,1666E-3,5C000400,-0724,0829,12079,021.9,045.3,0.266,754.6,01.17,0.508
2015-11-10 00:04:00,1661E-3,5C000400,-0724,0828,12208,021.9,045.3,0.266,754.6,01.17,0.508
2015-11-10 00:05:00,1774E-3,5C000400,-0724,0829,12254,021.9,045.2,0.266,754.6,01.17,0.508
2015-11-10 00:06:00,1675E-3,5C000400,-0724,0829,12330,021.9,045.3,0.266,753.8,01.17,0.508
2015-11-10 00:07:00,1859E-3,5C000400,-0724,0829,12244,021.9,045.3,0.266,754.3,01.17,0.508
2015-11-10 00:08:00,1784E-3,5C000400,-0724,0829,12137,021.9,045.3,0.266,754.2,01.17,0.508
2015-11-10 00:09:00,1825E-3,5C000400,-0724,0829,12289,021.9,045.3,0.266,754.2,01.17,0.508
2015-11-10 00:10:00,1801E-3,5C000400,-0724,0829,12277,021.9,045.3,0.266,754.1,01.17,0.508
2015-11-10 00:11:00,1883E-3,5C000400,-0724,0829,12179,021.9,045.3,0.266,754.4,01.17,0.508
2015-11-10 00:12:00,1660E-3,5C000400,-0724,0830,12085,021.9,045.3,0.266,754.5,01.17,0.508
2015-11-10 00:13:00,1833E-3,5C000400,-0724,0829,12243,021.8,045.3,0.266,754.3,01.17,0.508
2015-11-10 00:14:00,1822E-3,5C000400,-0724,0830,12284,021.8,045.3,0.266,754.3,01.17,0.508
2015-11-10 00:15:00,1898E-3,5C000400,-0724,0830,12252,021.9,045.3,0.266,754.3,01.17,0.508
2015-11-10 00:16:00,1835E-3,5C000400,-0724,0829,12191,021.8,045.3,0.266,754.5,01.17,0.508
2015-11-10 00:17:00,1867E-3,5C000400,-0724,0829,12144,021.8,045.3,0.266,754.2,01.17,0.508
2015-11-10 00:18:00,1928E-3,5C000400,-0724,0829,12131,021.8,045.2,0.266,754.5,01.17,0.508
2015-11-10 00:19:00,1825E-3,5C000400,-0724,0829,12196,021.8,045.2,0.266,754.2,01.17,0.508
2015-11-10 00:20:00,1879E-3,5C000400,-0724,0830,12179,021.8,045.3,0.266,754.4,01.17,0.508
2015-11-10 00:21:00,1873E-3,5C000400,-0724,0828,12203,021.8,045.3,0.266,754.2,01.17,0.508
2015-11-10 00:22:00,1855E-3,5C000400,-0724,0829,12113,021.8,045.3,0.266,754.3,01.17,0.508
2015-11-10 00:23:00,1811E-3,5C000400,-0724,0829,11947,021.8,045.3,0.266,754.2,01.17,0.508
2015-11-10 00:24:00,1729E-3,5C000400,-0724,0830,12272,021.8,045.3,0.267,754.4,01.17,0.508
2015-11-10 00:25:00,1886E-3,5C000400,-0724,0829,12221,021.8,045.3,0.266,754.1,01.17,0.508
2015-11-10 00:26:00,1705E-3,5C000400,-0724,0829,12352,021.8,045.3,0.266,754.4,01.17,0.508
2015-11-10 00:27:00,1821E-3,5C000400,-0724,0829,12040,021.8,045.3,0.267,754.2,01.17,0.508
2015-11-10 00:28:00,1763E-3,5C000400,-0724,0829,12283,021.8,045.3,0.266,753.8,01.17,0.508
2015-11-10 00:29:00,1947E-3,5C000400,-0724,0828,12180,021.8,045.3,0.266,754.0,01.17,0.508
2015-11-10 00:30:00,1709E-3,5C000400,-0724,0829,12180,021.8,045.3,0.266,753.8,01.17,0.508
2015-11-10 00:31:00,1749E-3,5C000400,-0724,0829,12227,021.8,045.3,0.266,753.6,01.17,0.508
2015-11-10 00:32:00,1850E-3,5C000400,-0724,0829,12296,021.7,045.3,0.266,753.8,01.17,0.508
2015-11-10 00:33:00,1759E-3,5C000400,-0724,0829,12410,021.7,045.3,0.266,753.9,01.17,0.508
2015-11-10 00:34:00,1759E-3,5C000400,-0724,0829,12268,021.7,045.3,0.266,754.1,01.17,0.508
2015-11-10 00:35:00,1762E-3,5C000400,-0724,0829,12229,021.7,045.3,0.266,753.8,01.17,0.508
2015-11-10 00:36:00,1949E-3,5C000400,-0724,0830,12190,021.7,045.3,0.267,753.5,01.17,0.508
2015-11-10 00:37:00,1888E-3,5C000400,-0724,0828,12128,021.7,045.3,0.266,753.3,01.17,0.508
2015-11-10 00:38:00,1711E-3,5C000400,-0724,0829,12147,021.7,045.3,0.266,753.5,01.17,0.508
2015-11-10 00:39:00,1853E-3,5C000400,-0724,0829,12200,021.7,045.3,0.266,753.5,01.17,0.508
2015-11-10 00:40:00,1722E-3,5C000400,-0724,0829,12211,021.7,045.2,0.266,753.6,01.17,0.508
2015-11-10 00:41:00,1755E-3,5C000400,-0724,0829,12110,021.7,045.3,0.266,753.8,01.17,0.508
2015-11-10 00:42:00,1793E-3,5C000400,-0724,0829,12236,021.7,045.3,0.267,754.0,01.17,0.508
2015-11-10 00:43:00,1782E-3,5C000400,-0724,0829,12363,021.7,045.2,0.266,753.8,01.17,0.508
2015-11-10 00:44:00,1802E-3,5C000400,-0724,0829,12235,021.6,045.3,0.266,753.8,01.17,0.508
2015-11-10 00:45:00,1809E-3,5C000400,-0724,0829,12304,021.7,045.3,0.266,753.6,01.17,0.508
2015-11-10 00:46:00,1858E-3,5C000400,-0724,0829,12204,021.7,045.3,0.266,754.0,01.17,0.508
2015-11-10 00:47:00,1781E-3,5C000400,-0724,0829,12240,021.6,045.3,0.267,753.7,01.17,0.508
2015-11-10 00:48:00,1821E-3,5C000400,-0724,0830,12178,021.6,045.3,0.267,753.8,01.17,0.508
2015-11-10 00:49:00,1918E-3,5C000400,-0724,0829,12154,021.6,045.3,0.267,754.1,01.17,0.508
2015-11-10 00:50:00,1803E-3,5C000400,-0724,0829,11992,021.6,045.3,0.266,753.8,01.17,0.508
2015-11-10 00:51:00,1862E-3,5C000400,-0724,0829,12136,021.6,045.3,0.266,753.6,01.17,0.508
2015-11-10 00:52:00,1731E-3,5C000400,-0724,0829,12223,021.6,045.3,0.266,753.9,01.17,0.508
2015-11-10 00:53:00,1999E-3,5C000400,-0724,0829,12164,021.6,045.3,0.266,753.6,01.17,0.508
2015-11-10 00:54:00,1935E-3,5C000400,-0724,0829,12238,021.6,045.3,0.266,753.5,01.17,0.508
2015-11-10 00:55:00,1861E-3,5C000400,-0724,0829,12245,021.6,045.3,0.267,754.2,01.17,0.508
2015-11-10 00:56:00,1824E-3,5C000400,-0724,0828,12257,021.6,045.3,0.267,753.4,01.17,0.508
2015-11-10 00:57:00,1797E-3,5C000400,-0724,0829,12161,021.6,045.3,0.267,754.0,01.17,0.508
2015-11-10 00:58:00,1849E-3,5C000400,-0724,0829,12290,021.5,045.3,0.267,753.7,01.17,0.508
2015-11-10 00:59:00,1784E-3,5C000400,-0724,0829,12154,021.6,045.3,0.266,753.7,01.17,0.508
2015-11-10 01:00:00,1836E-3,5C000400,-0724,0828,12210,021.5,045.3,0.266,753.7,01.17,0.508
2015-11-10 01:01:00,1723E-3,5C000400,-0724,0828,12253,021.5,045.3,0.266,753.5,01.17,0.508
2015-11-10 01:02:00,1681E-3,5C000400,-0724,0829,12206,021.5,045.3,0.266,753.7,01.17,0.508
2015-11-10 01:03:00,1794E-3,5C000400,-0724,0829,12188,021.5,045.3,0.267,754.1,01.17,0.508
2015-11-10 01:04:00,1816E-3,5C000400,-0724,0829,12167,021.5,045.3,0.267,754.0,01.17,0.508
2015-11-10 01:05:00,1634E-3,5C000400,-0724,0829,12269,021.5,045.3,0.267,753.6,01.17,0.508
2015-11-10 01:06:00,1825E-3,5C000400,-0724,0829,12286,021.5,045.3,0.267,753.8,01.17,0.508
2015-11-10 01:07:00,1744E-3,5C000400,-0724,0829,12173,021.5,045.3,0.267,753.8,01.17,0.508
2015-11-10 01:08:00,1728E-3,5C000400,-0724,0829,12190,021.5,045.3,0.267,753.6,01.17,0.508
2015-11-10 01:09:00,1830E-3,5C000400,-0724,0828,12159,021.5,045.3,0.267,753.6,01.17,0.508
2015-11-10 01:10:00,1941E-3,5C000400,-0724,0829,12205,021.5,045.3,0.267,752.8,01.17,0.508
2015-11-10 01:11:00,1813E-3,5C000400,-0724,0829,12211,021.5,045.3,0.266,753.5,01.17,0.508
2015-11-10 01:12:00,1734E-3,5C000400,-0724,0829,12028,021.5,045.3,0.267,753.3,01.17,0.508
2015-11-10 01:13:00,1861E-3,5C000400,-0724,0829,12290,021.5,045.3,0.267,753.8,01.17,0.508
2015-11-10 01:14:00,1762E-3,5C000400,-0724,0829,12021,021.4,045.3,0.267,753.3,01.17,0.508
2015-11-10 01:15:00,1792E-3,5C000400,-0724,0829,12282,021.4,045.3,0.267,753.4,01.17,0.508
2015-11-10 01:16:00,1918E-3,5C000400,-0724,0829,12297,021.4,045.3,0.267,753.7,01.17,0.508
2015-11-10 01:17:00,1812E-3,5C000400,-0724,0829,12292,021.4,045.3,0.267,753.6,01.17,0.508
2015-11-10 01:18:00,1781E-3,5C000400,-0724,0829,12185,021.4,045.3,0.267,753.4,01.17,0.508
2015-11-10 01:19:00,1789E-3,5C000400,-0724,0829,12177,021.4,045.3,0.267,753.7,01.17,0.508
2015-11-10 01:20:00,1704E-3,5C000400,-0724,0829,12195,021.4,045.3,0.267,753.7,01.17,0.508
2015-11-10 01:21:00,1778E-3,5C000400,-0724,0828,12283,021.4,045.3,0.267,753.5,01.17,0.508
2015-11-10 01:22:00,1744E-3,5C000400,-0724,0829,12192,021.4,045.2,0.267,753.8,01.17,0.508
2015-11-10 01:23:00,1813E-3,5C000400,-0724,0829,12240,021.4,045.3,0.267,753.8,01.17,0.508
2015-11-10 01:24:00,1778E-3,5C000400,-0724,0830,12129,021.4,045.3,0.267,753.9,01.17,0.508
2015-11-10 01:25:00,1776E-3,5C000400,-0724,0829,12150,021.4,045.2,0.266,754.0,01.17,0.508
2015-11-10 01:26:00,1790E-3,5C000400,-0724,0830,12306,021.4,045.2,0.267,753.7,01.17,0.508
2015-11-10 01:27:00,1817E-3,5C000400,-0724,0829,12325,021.4,045.3,0.267,753.7,01.17,0.508
2015-11-10 01:28:00,1848E-3,5C000400,-0724,0830,12291,021.4,045.3,0.267,753.5,01.17,0.508
2015-11-10 01:29:00,1837E-3,5C000400,-0724,0828,12267,021.3,045.3,0.267,753.6,01.17,0.508
2015-11-10 01:30:00,1743E-3,5C000400,-0724,0829,12207,021.4,045.3,0.267,754.0,01.17,0.508
2015-11-10 01:31:00,1793E-3,5C000400,-0724,0829,12219,021.3,045.3,0.267,753.7,01.17,0.508
2015-11-10 01:32:00,1811E-3,5C000400,-0724,0829,12094,021.3,045.3,0.267,753.7,01.17,0.508
2015-11-10 01:33:00,1802E-3,5C000400,-0724,0830,12297,021.3,045.3,0.267,753.1,01.17,0.508
2015-11-10 01:34:00,1735E-3,5C000400,-0724,0829,12088,021.3,045.2,0.267,753.7,01.17,0.508
2015-11-10 01:35:00,1761E-3,5C000400,-0724,0829,12210,021.3,045.3,0.267,753.8,01.17,0.508
2015-11-10 01:36:00,1751E-3,5C000400,-0724,0830,12266,021.3,045.3,0.267,753.9,01.17,0.508
2015-11-10 01:37:00,1796E-3,5C000400,-0724,0830,12204,021.3,045.3,0.267,753.8,01.17,0.508
2015-11-10 01:38:00,1793E-3,5C000400,-0724,0829,12130,021.3,045.3,0.267,753.4,01.17,0.508
2015-11-10 01:39:00,1896E-3,5C000400,-0724,0829,12141,021.3,045.3,0.267,753.5,01.17,0.508
2015-11-10 01:40:00,1900E-3,5C000400,-0724,0829,12074,021.3,045.2,0.267,753.6,01.17,0.508
2015-11-10 01:41:00,1817E-3,5C000400,-0724,0829,12260,021.3,045.2,0.267,753.7,01.17,0.508
2015-11-10 01:42:00,1794E-3,5C000400,-0724,0828,12238,021.3,045.2,0.267,753.5,01.17,0.508
2015-11-10 01:43:00,1889E-3,5C000400,-0724,0829,12408,021.3,045.2,0.267,753.5,01.17,0.508
2015-11-10 01:44:00,1886E-3,5C000400,-0724,0830,12232,021.3,045.3,0.267,753.4,01.17,0.508
2015-11-10 01:45:00,1801E-3,5C000400,-0724,0829,12009,021.2,045.3,0.267,753.4,01.17,0.508
2015-11-10 01:46:00,1872E-3,5C000400,-0724,0829,12231,021.2,045.3,0.267,753.6,01.17,0.508
2015-11-10 01:47:00,1742E-3,5C000400,-0724,0829,12300,021.2,045.3,0.267,753.2,01.17,0.508
2015-11-10 01:48:00,1680E-3,5C000400,-0724,0829,12111,021.2,045.3,0.267,753.7,01.17,0.508
2015-11-10 01:49:00,1781E-3,5C000400,-0724,0829,12169,021.2,045.3,0.267,753.9,01.17,0.508
2015-11-10 01:50:00,1726E-3,5C000400,-0724,0830,12147,021.2,045.3,0.267,754.0,01.17,0.508
2015-11-10 01:51:00,1895E-3,5C000400,-0724,0828,12245,021.2,045.2,0.267,753.8,01.17,0.508
2015-11-10 01:52:00,1687E-3,5C000400,-0724,0829,12302,021.2,045.3,0.267,754.1,01.17,0.508
2015-11-10 01:53:00,1705E-3,5C000400,-0724,0829,12253,021.2,045.3,0.267,753.7,01.17,0.508
2015-11-10 01:54:00,1827E-3,5C000400,-0724,0829,12297,021.2,045.2,0.267,753.5,01.17,0.508
2015-11-10 01:55:00,1763E-3,5C000400,-0724,0828,12157,021.2,045.3,0.267,753.4,01.17,0.508
2015-11-10 01:56:00,1746E-3,5C000400,-0724,0829,12316,021.2,045.2,0.268,753.8,01.17,0.508
2015-11-10 01:57:00,1846E-3,5C000400,-0724,0830,12159,021.2,045.3,0.268,753.2,01.17,0.508
2015-11-10 01:58:00,1808E-3,5C000400,-0724,0829,12122,021.2,045.3,0.267,753.6,01.17,0.508
2015-11-10 01:59:00,1875E-3,5C000400,-0724,0830,12271,021.2,045.3,0.267,753.5,01.17,0.508
2015-11-10 02:00:00,1795E-3,5C000400,-0724,0829,12217,021.2,045.3,0.267,753.5,01.17,0.508
2015-11-10 02:01:00,1800E-3,5C000400,-0724,0829,12107,021.2,045.2,0.267,753.5,01.17,0.508
2015-11-10 02:02:00,1800E-3,5C000400,-0724,0829,12168,021.2,045.3,0.267,753.3,01.17,0.508
2015-11-10 02:03:00,1782E-3,5C000400,-0724,0830,12294,021.2,045.3,0.267,753.3,01.17,0.508
2015-11-10 02:04:00,1820E-3,5C000400,-0724,0829,12238,021.2,045.3,0.267,753.3,01.17,0.508
2015-11-10 02:05:00,1735E-3,5C000400,-0724,0829,12210,021.2,045.3,0.267,753.7,01.17,0.508
2015-11-10 02:06:00,1861E-3,5C000400,-0724,0829,12262,021.1,045.3,0.267,753.7,01.17,0.508
2015-11-10 02:07:00,1780E-3,5C000400,-0724,0829,12028,021.1,045.3,0.267,753.5,01.17,0.508
2015-11-10 02:08:00,1733E-3,5C000400,-0724,0830,12070,021.2,045.3,0.267,752.8,01.17,0.508
2015-11-10 02:09:00,1793E-3,5C000400,-0724,0829,12275,021.2,045.3,0.267,753.5,01.17,0.508
2015-11-10 02:10:00,1952E-3,5C000400,-0724,0829,12276,021.1,045.3,0.267,753.0,01.17,0.508
2015-11-10 02:11:00,1680E-3,5C000400,-0724,0829,12145,021.1,045.3,0.267,753.5,01.17,0.508
2015-11-10 02:12:00,1791E-3,5C000400,-0724,0829,12023,021.1,045.2,0.267,752.9,01.17,0.508
2015-11-10 02:13:00,1795E-3,5C000400,-0724,0829,12193,021.1,045.3,0.268,753.6,01.17,0.508
2015-11-10 02:14:00,1707E-3,5C000400,-0724,0829,12339,021.1,045.3,0.268,753.5,01.17,0.508
2015-11-10 02:15:00,1779E-3,5C000400,-0724,0829,12305,021.1,045.3,0.268,752.9,01.17,0.508
2015-11-10 02:16:00,1970E-3,5C000400,-0724,0829,12234,021.1,045.3,0.268,753.7,01.17,0.508
2015-11-10 02:17:00,1777E-3,5C000400,-0724,0828,12149,021.1,045.3,0.267,753.6,01.17,0.508
2015-11-10 02:18:00,1763E-3,5C000400,-0724,0829,12191,021.1,045.3,0.267,753.2,01.17,0.508
2015-11-10 02:19:00,1799E-3,5C000400,-0724,0829,12177,021.1,045.3,0.267,753.6,01.17,0.508
2015-11-10 02:20:00,1761E-3,5C000400,-0724,0829,11914,021.1,045.3,0.267,753.3,01.17,0.508
2015-11-10 02:21:00,1779E-3,5C000400,-0724,0829,12232,021.1,045.3,0.267,752.8,01.17,0.508
2015-11-10 02:22:00,1762E-3,5C000400,-0724,0829,11988,021.1,045.3,0.267,753.1,01.17,0.508
2015-11-10 02:23:00,1924E-3,5C000400,-0724,0829,12131,021.1,045.2,0.268,753.2,01.17,0.508
2015-11-10 02:24:00,1721E-3,5C000400,-0724,0829,12311,021.1,045.3,0.267,753.0,01.17,0.508
2015-11-10 02:25:00,1770E-3,5C000400,-0724,0828,12234,021.1,045.3,0.267,753.1,01.17,0.508
2015-11-10 02:26:00,1734E-3,5C000400,-0724,0829,12261,021.1,045.3,0.267,753.0,01.17,0.508
2015-11-10 02:27:00,1906E-3,5C000400,-0724,0829,12191,021.0,045.2,0.268,753.0,01.17,0.508
2015-11-10 02:28:00,1946E-3,5C000400,-0724,0829,12243,021.1,045.3,0.268,752.7,01.17,0.508
2015-11-10 02:29:00,1842E-3,5C000400,-0724,0829,12187,021.1,045.3,0.267,753.5,01.17,0.508
2015-11-10 02:30:00,1795E-3,5C000400,-0724,0830,12264,021.0,045.3,0.268,753.3,01.17,0.508
2015-11-10 02:31:00,1832E-3,5C000400,-0724,0829,12070,021.0,045.2,0.268,752.5,01.17,0.508
2015-11-10 02:32:00,1875E-3,5C000400,-0724,0829,12298,021.1,045.2,0.267,753.3,01.17,0.508
2015-11-10 02:33:00,1727E-3,5C000400,-0724,0829,12216,021.0,045.3,0.268,753.4,01.17,0.508
2015-11-10 02:34:00,1803E-3,5C000400,-0724,0829,12261,021.0,045.3,0.268,753.0,01.17,0.508
2015-11-10 02:35:00,1895E-3,5C000400,-0724,0829,12220,021.0,045.2,0.267,753.4,01.17,0.508
2015-11-10 02:36:00,1856E-3,5C000400,-0724,0829,12240,021.0,045.2,0.268,753.2,01.17,0.508
2015-11-10 02:37:00,1758E-3,5C000400,-0724,0829,12215,021.0,045.2,0.268,753.2,01.17,0.508
2015-11-10 02:38:00,1826E-3,5C000400,-0724,0830,12219,021.0,045.2,0.267,752.8,01.17,0.508
2015-11-10 02:39:00,1804E-3,5C000400,-0724,0829,12262,021.0,045.2,0.267,753.1,01.17,0.508
2015-11-10 02:40:00,1871E-3,5C000400,-0724,0829,12303,021.0,045.3,0.267,753.4,01.17,0.508
2015-11-10 02:41:00,1720E-3,5C000400,-0724,0829,12210,021.0,045.3,0.267,752.7,01.17,0.508
2015-11-10 02:42:00,1826E-3,5C000400,-0724,0828,12036,021.0,045.3,0.268,753.0,01.17,0.508
2015-11-10 02:43:00,1755E-3,5C000400,-0724,0829,12197,021.0,045.3,0.267,753.3,01.17,0.508
2015-11-10 02:44:00,1793E-3,5C000400,-0724,0829,12212,021.0,045.2,0.267,753.0,01.17,0.508
2015-11-10 02:45:00,1928E-3,5C000400,-0724,0829,12260,021.0,045.2,0.267,753.5,01.17,0.508
2015-11-10 02:46:00,1842E-3,5C000400,-0724,0830,12146,021.0,045.2,0.267,753.7,01.17,0.508
2015-11-10 02:47:00,1758E-3,5C000400,-0724,0829,12213,021.0,045.2,0.267,753.4,01.17,0.508
2015-11-10 02:48:00,1905E-3,5C000400,-0724,0828,12199,021.0,045.3,0.267,753.3,01.17,0.508
2015-11-10 02:49:00,1890E-3,5C000400,-0724,0829,12263,021.0,045.3,0.267,753.3,01.17,0.508
2015-11-10 02:50:00,1826E-3,5C000400,-0724,0829,12251,021.0,045.3,0.267,753.2,01.17,0.508
2015-11-10 02:51:00,1828E-3,5C000400,-0724,0829,12254,021.0,045.2,0.268,752.6,01.17,0.508
2015-11-10 02:52:00,1904E-3,5C000400,-0724,0828,12220,021.0,045.3,0.268,753.0,01.17,0.508
2015-11-10 02:53:00,1802E-3,5C000400,-0724,0829,12176,020.9,045.2,0.268,753.1,01.17,0.508
2015-11-10 02:54:00,1810E-3,5C000400,-0724,0829,12219,020.9,045.2,0.268,752.8,01.17,0.508
2015-11-10 02:55:00,1751E-3,5C000400,-0724,0829,12179,020.9,045.3,0.268,753.5,01.17,0.508
2015-11-10 02:56:00,1766E-3,5C000400,-0724,0829,12299,020.9,045.3,0.268,753.4,01.17,0.508
2015-11-10 02:57:00,1881E-3,5C000400,-0724,0829,12286,020.9,045.3,0.268,753.0,01.17,0.508
2015-11-10 02:58:00,1911E-3,5C000400,-0724,0829,12174,020.9,045.2,0.268,753.6,01.17,0.508
2015-11-10 02:59:00,1872E-3,5C000400,-0724,0830,12255,020.9,045.3,0.268,753.1,01.17,0.508
2015-11-10 03:00:00,1810E-3,5C000400,-0724,0830,12310,020.9,045.3,0.268,753.7,01.17,0.508
2015-11-10 03:01:00,1920E-3,5C000400,-0724,0829,12090,020.9,045.3,0.268,753.4,01.17,0.508
2015-11-10 03:02:00,1871E-3,5C000400,-0724,0829,12165,020.9,045.3,0.268,753.2,01.17,0.508
2015-11-10 03:03:00,1886E-3,5C000400,-0724,0829,12282,020.9,045.3,0.268,753.2,01.17,0.508
2015-11-10 03:04:00,1984E-3,5C000400,-0724,0829,12148,020.9,045.3,0.268,753.4,01.17,0.508
2015-11-10 03:05:00,1796E-3,5C000400,-0724,0829,12168,020.9,045.3,0.267,753.3,01.17,0.508
2015-11-10 03:06:00,1806E-3,5C000400,-0724,0829,12046,020.9,045.3,0.267,753.5,01.17,0.508
2015-11-10 03:07:00,1694E-3,5C000400,-0724,0829,12168,020.9,045.3,0.267,753.1,01.17,0.508
2015-11-10 03:08:00,1728E-3,5C000400,-0724,0829,12115,020.9,045.2,0.268,753.6,01.17,0.508
2015-11-10 03:09:00,1821E-3,5C000400,-0724,0828,12212,020.9,045.3,0.268,752.7,01.17,0.508
2015-11-10 03:10:00,1673E-3,5C000400,-0724,0829,12143,020.9,045.3,0.268,753.0,01.17,0.508
2015-11-10 03:11:00,1802E-3,5C000400,-0724,0830,12130,020.9,045.3,0.268,752.9,01.17,0.508
2015-11-10 03:12:00,1787E-3,5C000400,-0724,0829,12219,020.8,045.2,0.268,753.6,01.17,0.508
2015-11-10 03:13:00,1835E-3,5C000400,-0724,0829,12186,020.9,045.3,0.268,753.2,01.17,0.508
2015-11-10 03:14:00,1732E-3,5C000400,-0724,0829,12199,020.9,045.3,0.268,753.0,01.17,0.508
2015-11-10 03:15:00,1845E-3,5C000400,-0724,0829,12174,020.9,045.3,0.268,752.8,01.17,0.508
2015-11-10 03:16:00,1749E-3,5C000400,-0724,0829,12100,020.9,045.3,0.268,753.1,01.17,0.508
2015-11-10 03:17:00,1830E-3,5C000400,-0724,0828,12271,020.8,045.3,0.268,752.9,01.17,0.508
2015-11-10 03:18:00,1687E-3,5C000400,-0724,0829,12186,020.8,045.2,0.267,753.1,01.17,0.508
2015-11-10 03:19:00,1826E-3,5C000400,-0724,0830,12208,020.8,045.2,0.267,753.0,01.17,0.508
2015-11-10 03:20:00,1826E-3,5C000400,-0724,0828,12317,020.8,045.3,0.267,752.7,01.17,0.508
2015-11-10 03:21:00,1756E-3,5C000400,-0724,0829,12220,020.9,045.3,0.267,753.2,01.17,0.508
2015-11-10 03:22:00,1740E-3,5C000400,-0724,0829,12165,020.8,045.3,0.267,752.7,01.17,0.508
2015-11-10 03:23:00,1783E-3,5C000400,-0724,0829,12243,020.8,045.2,0.268,752.5,01.17,0.508
2015-11-10 03:24:00,1915E-3,5C000400,-0724,0829,12157,020.8,045.2,0.268,753.0,01.17,0.508
2015-11-10 03:25:00,1966E-3,5C000400,-0724,0829,12244,020.8,045.3,0.268,753.3,01.17,0.508
2015-11-10 03:26:00,1779E-3,5C000400,-0724,0828,12240,020.8,045.3,0.268,753.3,01.17,0.508
2015-11-10 03:27:00,1824E-3,5C000400,-0724,0830,12211,020.8,045.3,0.268,753.1,01.17,0.508
2015-11-10 03:28:00,1835E-3,5C000400,-0724,0829,12286,020.8,045.3,0.268,752.5,01.17,0.508
2015-11-10 03:29:00,1857E-3,5C000400,-0724,0829,12370,020.8,045.2,0.268,752.5,01.17,0.508
2015-11-10 03:30:00,1822E-3,5C000400,-0724,0829,12217,020.8,045.2,0.268,753.1,01.17,0.508
2015-11-10 03:31:00,1783E-3,5C000400,-0724,0829,12246,020.8,045.3,0.268,752.7,01.17,0.508
2015-11-10 03:32:00,1630E-3,5C000400,-0724,0829,12294,020.8,045.3,0.268,753.2,01.17,0.508
2015-11-10 03:33:00,1689E-3,5C000400,-0724,0830,12240,020.8,045.2,0.268,752.9,01.17,0.508
2015-11-10 03:34:00,1834E-3,5C000400,-0724,0829,12214,020.8,045.2,0.267,752.9,01.17,0.508
2015-11-10 03:35:00,1848E-3,5C000400,-0724,0829,12276,020.8,045.2,0.267,753.0,01.17,0.508
2015-11-10 03:36:00,1875E-3,5C000400,-0724,0829,12161,020.8,045.3,0.267,753.4,01.17,0.508
2015-11-10 03:37:00,1778E-3,5C000400,-0724,0830,12210,020.8,045.3,0.268,753.1,01.17,0.508
2015-11-10 03:38:00,1866E-3,5C000400,-0724,0829,12190,020.8,045.3,0.268,753.0,01.17,0.508
2015-11-10 03:39:00,1922E-3,5C000400,-0724,0829,12108,020.8,045.2,0.268,752.7,01.17,0.508
2015-11-10 03:40:00,1794E-3,5C000400,-0724,0829,12236,020.8,045.2,0.268,752.5,01.17,0.508
2015-11-10 03:41:00,1822E-3,5C000400,-0724,0829,12270,020.8,045.2,0.268,753.1,01.17,0.508
2015-11-10 03:42:00,1781E-3,5C000400,-0724,0829,12239,020.8,045.2,0.268,753.1,01.17,0.508
2015-11-10 03:43:00,1654E-3,5C000400,-0724,0829,12177,020.8,045.2,0.268,753.0,01.17,0.508
2015-11-10 03:44:00,1770E-3,5C000400,-0724,0829,12266,020.7,045.2,0.268,752.6,01.17,0.508
2015-11-10 03:45:00,1816E-3,5C000400,-0724,0829,12027,020.7,045.3,0.268,753.3,01.17,0.508
2015-11-10 03:46:00,1789E-3,5C000400,-0724,0829,12272,020.7,045.2,0.268,753.1,01.17,0.508
2015-11-10 03:47:00,1782E-3,5C000400,-0724,0829,12277,020.8,045.2,0.268,752.8,01.17,0.508
2015-11-10 03:48:00,1834E-3,5C000400,-0724,0829,12207,020.7,045.2,0.268,753.2,01.17,0.508
2015-11-10 03:49:00,1863E-3,5C000400,-0724,0829,12167,020.8,045.2,0.268,752.6,01.17,0.508
2015-11-10 03:50:00,1828E-3,5C000400,-0724,0829,12208,020.8,045.3,0.268,753.0,01.17,0.508
2015-11-10 03:51:00,1778E-3,5C000400,-0724,0829,12193,020.7,045.3,0.268,752.8,01.17,0.508
2015-11-10 03:52:00,1767E-3,5C000400,-0724,0829,12206,020.8,045.3,0.268,753.1,01.17,0.508
2015-11-10 03:53:00,1873E-3,5C000400,-0724,0829,12171,020.7,045.2,0.268,752.4,01.17,0.508
2015-11-10 03:54:00,1834E-3,5C000400,-0724,0828,12147,020.8,045.3,0.268,752.8,01.17,0.508
2015-11-10 03:55:00,1706E-3,5C000400,-0724,0830,12277,020.8,045.2,0.268,752.8,01.17,0.508
2015-11-10 03:56:00,1873E-3,5C000400,-0724,0829,12292,020.7,045.3,0.268,753.1,01.17,0.508
2015-11-10 03:57:00,1839E-3,5C000400,-0724,0828,12304,020.7,045.2,0.268,752.7,01.17,0.508
2015-11-10 03:58:00,1745E-3,5C000400,-0724,0829,12213,020.7,045.3,0.268,752.5,01.17,0.508
2015-11-10 03:59:00,1894E-3,5C000400,-0724,0829,12248,020.7,045.2,0.268,752.8,01.17,0.508
2015-11-10 04:00:00,1844E-3,5C000400,-0724,0829,12208,020.7,045.2,0.268,752.9,01.17,0.508
2015-11-10 04:01:00,1829E-3,5C000400,-0724,0829,12308,020.7,045.2,0.268,752.5,01.17,0.508
2015-11-10 04:02:00,1766E-3,5C000400,-0724,0830,12156,020.7,045.2,0.268,753.0,01.17,0.508
2015-11-10 04:03:00,1790E-3,5C000400,-0724,0830,12171,020.7,045.2,0.268,752.9,01.17,0.508
2015-11-10 04:04:00,1741E-3,5C000400,-0724,0829,12296,020.7,045.3,0.268,752.6,01.17,0.508
2015-11-10 04:05:00,1875E-3,5C000400,-0724,0828,12210,020.7,045.2,0.268,752.7,01.17,0.508
2015-11-10 04:06:00,1765E-3,5C000400,-0724,0829,12190,020.7,045.2,0.268,752.9,01.17,0.508
2015-11-10 04:07:00,1725E-3,5C000400,-0724,0828,12273,020.7,045.2,0.268,752.7,01.17,0.508
2015-11-10 04:08:00,1798E-3,5C000400,-0724,0829,12332,020.7,045.2,0.269,753.3,01.17,0.508
2015-11-10 04:09:00,1841E-3,5C000400,-0724,0829,12257,020.7,045.3,0.268,753.3,01.17,0.508
2015-11-10 04:10:00,1830E-3,5C000400,-0724,0828,12221,020.7,045.2,0.268,752.8,01.17,0.508
2015-11-10 04:11:00,1760E-3,5C000400,-0724,0828,12235,020.7,045.2,0.268,752.9,01.17,0.508
2015-11-10 04:12:00,1759E-3,5C000400,-0724,0830,12075,020.7,045.2,0.268,752.7,01.17,0.508
2015-11-10 04:13:00,1751E-3,5C000400,-0724,0828,12169,020.7,045.2,0.269,753.7,01.17,0.508
2015-11-10 04:14:00,1829E-3,5C000400,-0724,0829,12290,020.7,045.2,0.269,752.5,01.17,0.508
2015-11-10 04:15:00,1787E-3,5C000400,-0724,0828,12048,020.7,045.3,0.269,752.7,01.17,0.508
2015-11-10 04:16:00,1721E-3,5C000400,-0724,0829,12262,020.7,045.3,0.268,753.3,01.17,0.508
2015-11-10 04:17:00,1818E-3,5C000400,-0724,0829,12214,020.7,045.2,0.268,753.2,01.17,0.508
2015-11-10 04:18:00,2007E-3,5C000400,-0724,0830,12352,020.7,045.3,0.269,753.4,01.17,0.508
2015-11-10 04:19:00,1818E-3,5C000400,-0724,0829,12345,020.6,045.3,0.268,752.5,01.17,0.508
2015-11-10 04:20:00,1894E-3,5C000400,-0724,0829,12183,020.7,045.2,0.268,752.5,01.17,0.508